Location: Leganes-MADRID
(40.3441°N, 3.7527°W)
Time: 14:23:34
(UTC+02:00)

Hubble Space Telescope - Visible Passes

Search period start: 25 May 2017 00:00
Search period end: 04 June 2017 00:00
Orbit: 538 x 541 km, 28.5° (Epoch: 24 May)

Date Brightness Start Highest point End Pass type
(mag) Time Alt. Az. Time Alt. Az. Time Alt. Az.
29 May 3.0 23:21:20 10° SSW 23:21:52 12° SSW 23:21:52 12° SSW visible
30 May 2.7 23:10:59 10° SSW 23:12:43 15° S 23:12:43 15° S visible
31 May 2.5 23:00:45 10° SW 23:03:15 16° S 23:03:25 16° S visible
01 Jun 2.5 22:50:33 10° SW 22:53:04 16° S 22:54:00 15° SSE visible
02 Jun 2.6 22:40:25 10° SW 22:42:53 15° S 22:44:29 13° SSE visible
03 Jun 2.7 22:30:21 10° SW 22:32:42 15° S 22:34:54 11° SSE visible
